Location: Borojevi?i
(45.0486°N, 16.2297°E)
Time: 21:50:32
(UTC+00:00)

ARGOS - Pass Details

Date: 08 August 2020
Orbit: 820 x 835 km, 98.5° (Epoch: 21 September)

Event Time Altitude Azimuth Distance (km) Brightness Sun altitude
Rises 18:34:17 0° 174° (S) 3,359 6.0 -4.4°
Reaches altitude 10° 18:36:39 10° 177° (S) 2,428 5.3 -4.8°
Maximum altitude 18:41:59 63° 259° (WSW) 921 3.7 -5.6°
Drops below altitude 10° 18:47:20 10° 340° (NNW) 2,436 6.4 -6.4°
Sets 18:49:44 0° 344° (NNW) 3,371 7.1 -6.8°
